Location: ??????
(31.2056°N, 45.3906°E)
Time: 16:28:47
(UTC+00:00)

SL-24 R/B - RUBIN 2 - Pass Details

Date: 09 April 2020
Orbit: 569 x 1026 km, 64.6° (Epoch: 25 May)

Event Time Altitude Azimuth Distance (km) Brightness Sun altitude
Rises 15:55:03 0° 209° (SSW) 3,097 7.4 -7.5°
Reaches altitude 10° 15:57:16 10° 210° (SSW) 2,246 6.6 -8.0°
Maximum altitude 16:02:27 81° 298° (WNW) 830 4.3 -9.0°
Drops below altitude 10° 16:08:25 10° 26° (NNE) 2,573 6.6 -10.3°
Sets 16:11:06 0° 27° (NNE) 3,583 7.3 -10.8°
